This demonstration page uses our WeatherBlox Daily Observations layout. Learn more.

Left ArrowRight Arrow

Hourly Observations for January 19, 2017

Temp ( °F °C ) Dew Point ( °F °C ) Humidity (%) Winds ( mph kmh ) Pressure ( in mb ) Visibility ( mi km ) Precip ( " mm )
12:59 am 00:59 Mostly Clear 42 5.6 39 3.9 89 89 W 3 6 30.07 1018 9 14 0.00 0.00
1:59 am 01:59 Partly Cloudy 42 5.6 38 3.3 85 85 NNW 5 7 30.06 1018 10 16 0.00 0.00
2:59 am 02:59 Mostly Cloudy 42 5.6 38 3.3 85 85 NNW 3 6 30.07 1018 10 16 0.00 0.00
3:59 am 03:59 Mostly Cloudy 41 5 37 2.8 86 86 NW 6 9 30.08 1019 10 16 0.00 0.00
4:59 am 04:59 Mostly Cloudy 41 5 36 2.2 82 82 N 5 7 30.07 1018 10 16 0.00 0.00
5:59 am 05:59 Partly Cloudy 41 5 36 2.2 82 82 N 5 7 30.09 1019 10 16 0.00 0.00
6:59 am 06:59 Partly Cloudy 42 5.6 37 2.8 82 82 N 6 9 30.10 1019 10 16 0.00 0.00
7:59 am 07:59 Mostly Cloudy 44 6.7 38 3.3 79 79 N 5 7 30.11 1020 10 16 0.00 0.00
8:59 am 08:59 Mostly Cloudy 45 7.2 39 3.9 80 80 N 5 7 30.11 1020 10 16 0.00 0.00
9:59 am 09:59 Mostly Cloudy 49 9.4 39 3.9 69 69 N 5 7 30.13 1020 10 16 0.00 0.00
10:59 am 10:59 Mostly Cloudy 50 10 38 3.3 63 63 VRB 6 9 30.14 1021 10 16 0.00 0.00
11:59 am 11:59 Mostly Cloudy 52 11.1 37 2.8 57 57 NNE 9 15 30.11 1020 10 16 0.00 0.00
12:59 pm 12:59 Partly Cloudy 53 11.7 37 2.8 55 55 NNE 3 6 30.07 1018 10 16 0.00 0.00
1:59 pm 13:59 Partly Cloudy 52 11.1 37 2.8 57 57 NE 7 11 30.05 1018 10 16 0.00 0.00
2:59 pm 14:59 Mostly Cloudy 50 10 36 2.2 59 59 NE 8 13 30.02 1017 10 16 0.00 0.00
3:59 pm 15:59 Mostly Cloudy 49 9.4 35 1.7 59 59 E 7 11 30.04 1017 10 16 0.00 0.00
4:59 pm 16:59 Mostly Cloudy 48 8.9 35 1.7 61 61 E 6 9 30.05 1018 10 16 0.00 0.00
5:59 pm 17:59 Partly Cloudy 44 6.7 35 1.7 71 71 E 3 6 30.05 1018 10 16 0.00 0.00
6:59 pm 18:59 Partly Cloudy 42 5.6 36 2.2 79 79 Calm 30.05 1018 10 16 0.00 0.00
7:59 pm 19:59 Partly Cloudy 41 5 35 1.7 79 79 SSE 5 7 30.06 1018 10 16 0.00 0.00
8:59 pm 20:59 Mostly Clear 40 4.4 36 2.2 86 86 E 3 6 30.05 1018 9 14 0.00 0.00
9:59 pm 21:59 Partly Cloudy 42 5.6 36 2.2 79 79 SSE 6 9 30.04 1017 10 16 0.00 0.00
10:59 pm 22:59 Mostly Cloudy 42 5.6 37 2.8 82 82 Calm 30.05 1018 8 13 0.00 0.00
11:59 pm 23:59 Partly Cloudy 39 3.9 36 2.2 89 89 Calm 30.04 1017 7 11 0.00 0.00

Powered by AerisWeather